Flag for Germany Past Weather in Schloss Holte-Stukenbrock, North Rhine-Westphalia, Germany — Yesterday and Last 2 Weeks

Now
59 °F

Broken clouds.


Feels Like: 59 °F
Forecast: 50 / 70 °F
Wind: 5 mph from West

Location: Paderborn / Lippstadt

Current Time: Sep 26, 2016 at 9:13:41 AM

Latest Report: Sep 26, 2016 at 8:50 AM


Visibility: 5 mi

Pressure: 30.21 "Hg

Humidity: 77%

Dew Point: 52 °F

Location of Schloss Holte-StukenbrockLocation

Past Weather in Schloss Holte-Stukenbrock — Graph

°F

Schloss Holte-Stukenbrock Temperature Yesterday

Maximum temperature yesterday: 79 °F (at 1:50 PM)
Minimum temperature yesterday: 55 °F (at 1:50 AM)
Average temperature yesterday: 66 °F

High & Low Weather Summary for the Past Weeks

 TemperatureHumidityPressure
High90 °F (Sep 13, 1:50 PM)94% (Sep 17, 3:20 PM)30.30 "Hg (Sep 17, 3:20 PM)
Low43 °F (Sep 21, 5:50 AM)25% (Sep 13, 5:20 PM)29.83 "Hg (Sep 15, 4:20 PM)
Average65 °F61%30.06 "Hg
* Reported Sep 11 7:20 AM — Sep 26 7:50 AM, Schloss Holte-Stukenbrock, Weather by CustomWeather, © 2016

Note: Actual official high and low records may vary slightly from our data, if they occured in-between our weather recording intervals... More about our weather records

Advertising

Schloss Holte-Stukenbrock Weather History for the Previous 24 Hours

Scroll right to see more
 ConditionsComfort  
Time TempWeatherWind HumidityBarometerVisibility
7:50 AM
Mon, Sep 26
57 °FScattered clouds.3 mph77%30.21 "HgN/A
7:20 AM57 °FScattered clouds.3 mph77%30.21 "HgN/A
6:50 AM57 °FPassing clouds.6 mph82%30.18 "HgN/A
6:20 AM57 °FPassing clouds.6 mph82%30.18 "HgN/A
5:50 AM57 °FPassing clouds.6 mph82%30.18 "HgN/A
5:20 AM57 °FPassing clouds.5 mph82%30.18 "HgN/A
4:50 AM57 °FPassing clouds.5 mph82%30.18 "HgN/A
4:20 AM57 °FPassing clouds.3 mph82%30.18 "HgN/A
3:50 AM57 °FPassing clouds.3 mph82%30.18 "HgN/A
3:20 AM57 °FPassing clouds.5 mph88%30.18 "HgN/A
2:50 AM57 °FPassing clouds.3 mph88%30.18 "HgN/A
2:20 AM59 °FPassing clouds.5 mph82%30.18 "HgN/A
1:50 AM59 °FPassing clouds.5 mph82%30.18 "HgN/A
1:20 AM61 °FPassing clouds.7 mph77%30.18 "HgN/A
12:50 AM61 °FPassing clouds.7 mph77%30.15 "HgN/A
12:20 AM63 °FPassing clouds.8 mph73%30.15 "HgN/A
11:50 PM
Sun, Sep 25
63 °FPassing clouds.8 mph73%30.15 "HgN/A
11:20 PM64 °FPassing clouds.8 mph73%30.12 "HgN/A
10:50 PM66 °FPassing clouds.8 mph64%30.12 "HgN/A
10:20 PM66 °FClear.12 mph60%30.09 "Hg10 mi
9:50 PM66 °FClear.10 mph52%30.07 "Hg10 mi
9:20 PM66 °FClear.9 mph52%30.07 "Hg10 mi
8:50 PM68 °FClear.8 mph46%30.07 "Hg10 mi
8:20 PM70 °FClear.7 mph46%30.07 "Hg10 mi
7:50 PM68 °FClear.6 mph46%30.07 "Hg10 mi
7:20 PM72 °FClear.7 mph41%30.04 "Hg10 mi
6:50 PM75 °FSunny.8 mph36%30.04 "Hg10 mi
6:20 PM75 °FSunny.8 mph36%30.04 "Hg10 mi
5:50 PM75 °FSunny.12 mph34%30.04 "Hg10 mi
5:20 PM79 °FPassing clouds.8 mph30%30.04 "HgN/A
4:50 PM79 °FSunny.9 mph30%30.01 "Hg10 mi
4:20 PM79 °FPassing clouds.8 mph30%30.04 "HgN/A
3:50 PM79 °FSunny.9 mph30%30.04 "Hg10 mi
3:20 PM79 °FPassing clouds.8 mph28%30.04 "HgN/A
2:50 PM79 °FPassing clouds.8 mph28%30.04 "HgN/A
2:20 PM79 °FPassing clouds.9 mph30%30.04 "HgN/A
1:50 PM79 °FPassing clouds.8 mph30%30.04 "HgN/A
1:20 PM77 °FPassing clouds.7 mph32%30.04 "HgN/A
12:50 PM77 °FPassing clouds.10 mph34%30.07 "HgN/A
12:20 PM75 °FSunny.8 mph34%30.07 "Hg10 mi
11:50 AM73 °FSunny.10 mph38%30.07 "Hg10 mi
11:20 AM72 °FSunny.9 mph44%30.07 "Hg10 mi
10:50 AM68 °FSunny.8 mph49%30.07 "Hg10 mi
10:20 AM66 °FSunny.7 mph52%30.09 "Hg10 mi
9:50 AM64 °FSunny.7 mph56%30.09 "Hg10 mi
9:20 AM61 °FSunny.10 mph59%30.09 "Hg10 mi
Weather by CustomWeather, © 2016

See weather overviewHow to use our weather pages